Regional Weather Roundup
Issued by NWS Grand Forks, ND

Home | Current Version | Previous Version | Text Only | Print | Product List | Glossary Off
Versions: 1 2 3 4 5 6 7 8 9 10 11 12 13 14 15 16 17 18 19 20 21 22 23 24 25 26 27 28 29 30 31 32 33 34 35 36 37 38 39 40 41 42 43 44 45 46 47 48 49 50

000
ASUS43 KFGF 301010
RWRFGF
PRAIRIE TO PINES  WEATHER ROUNDUP
NATIONAL WEATHER SERVICE EASTERN NORTH DAKOTA/GRAND FORKS ND
500 AM CDT THU OCT 30 2014

 **SATELLITE DATA USED TO AUGMENT SKY COVER AT AUTOMATED STATIONS**
 *****  WEATHER ACROSS EASTERN NORTH DAKOTA  *****

CITY           SKY/WX    TMP DP  RH WIND       PRES   REMARKS
GRAND FORKS    MOCLDY    37  33  85 NE8       30.05R
GRAND FRKS AFB CLOUDY    35  34  97 NE7       30.06R
GRAND FRKS NWS   N/A     36 N/A N/A NE6         N/A
DEVILS LAKE    CLEAR     28  21  74 N10       30.07R WCI  19
FARGO          CLOUDY    40  37  89 SE5       30.00S
WAHPETON ARPT  CLOUDY    37  34  87 S5        30.01R
$$

 ***** WEATHER ACROSS CENTRAL AND WESTERN NORTH DAKOTA  *****

CITY           SKY/WX    TMP DP  RH WIND       PRES   REMARKS
BISMARCK       CLEAR     37  34  89 NW8       30.10R
MINOT          CLEAR     29  26  89 NW12      30.16R WCI  19
JAMESTOWN      CLEAR     35  33  92 N13       29.99R
MINOT AFB      CLEAR     29  29  99 N13       30.17R WCI  19
GARRISON         N/A     31  29  92 N15       30.13R WCI  20
WILLISTON      CLOUDY    37  33  85 N9        30.21R
DICKINSON      CLEAR     32  30  92 W8        30.14R WCI  25
HETTINGER      CLEAR     32  30  92 NW9       30.14R WCI  24
$$

 *****  OTHER AIRPORT OBSERVATIONS IN OUR AREA  *****

CITY           SKY/WX    TMP DP  RH WIND       PRES   REMARKS
WALHALLA       FAIR      32  32 100 NW9       30.13R WCI  24
GRAFTON AIRPOR FAIR      28  28 100 N7        30.09R WCI  21
VALLEY CITY AR CLOUDY    37  37 100 NW8       29.99R
CANDO          FAIR      27  25  93 N14       30.12R WCI  15
CAVALIER APRT  CLOUDY    32  28  86 N8        30.12R WCI  25
GWINNER        CLOUDY    39  39 100 CALM      29.99S
ROLLA          CLOUDY    28  28 100 N13       30.14R WCI  18
 ***** THE ABOVE OBSERVATIONS ARE NON NWS ARE NOT QUALITY
       CONTROLLED AND MAY MIS-REPORT RAIN FOR SNOW...
$$

  *****  WEATHER ACROSS NORTHERN MINNESOTA  *****

CITY           SKY/WX    TMP DP  RH WIND       PRES   REMARKS
FLAG ISLAND    CLOUDY    36  34  93 NW15      30.06R
WARROAD        CLOUDY    34  28  80 CALM      30.08R
ROSEAU         CLOUDY    34  28  80 N5        30.08R
HALLOCK        CLEAR     30  27  86 N6        30.09R WCI  24
THF RVR FALLS  CLOUDY    36  32  87 NE5       30.05R
BAUDETTE       CLOUDY    34  30  85 W3        30.06R
WASKISH        CLOUDY    34  32  93 CALM      30.05S
CROOKSTON      CLOUDY    37  36  93 E6        30.06R
$$
  *****  WEATHER ACROSS CENTRAL AND WEST MINNESOTA  *****

CITY           SKY/WX    TMP DP  RH WIND       PRES   REMARKS
FOSSTON        LGT RAIN  34  32  93 CALM      30.03S
BEMIDJI        FLURRIES  35  32  90 CALM      30.02S
PARK RAPIDS    CLOUDY    35  33  92 CALM      30.01S
ELBOW LAKE     CLOUDY    38  36  91 SE5       29.99S
WADENA         CLOUDY    36  34  93 CALM      30.00S
DETROIT LAKES  PTCLDY    37  36  93 SE3       30.01R
MOORHEAD       DRIZZLE   39  39 100 CALM      30.02R
FERGUS FALLS   CLOUDY    39  36  87 SE5       30.01S
MORRIS MN      NOT AVBL
STAPLES        CLOUDY    36  34  93 SE3       30.01F
$$
  *****  WEATHER ELSEWHERE ACROSS MINNESOTA  *****

CITY           SKY/WX    TMP DP  RH WIND       PRES   REMARKS
DULUTH         CLOUDY    36  32  85 W5        30.03S
INTRNTL FALLS  CLOUDY    34  32  92 W3        30.04S
ELY            CLOUDY    34  34 100 W3        30.02S
CLOQUET        CLOUDY    36  32  87 CALM      30.03S
WHEATON        CLOUDY    36  34  93 CALM      30.02R
BRAINERD       CLOUDY    35  33  92 SE3       30.03S
HIBBING        CLOUDY    35  32  88 CALM      30.03F
ALEXANDRIA     CLOUDY    38  34  85 SE7       30.00F
SAINT CLOUD    CLOUDY    39  35  86 CALM      30.03F
MINNEAPOLIS    CLOUDY    39  32  76 CALM      30.05S
$$

  *****  WEATHER ACROSS SOUTH DAKOTA  *****

CITY           SKY/WX    TMP DP  RH WIND       PRES   REMARKS
SIOUX FALLS    MOCLDY    42  33  70 SW3       29.97R
BROOKINGS      NOT AVBL
WATERTOWN      MOCLDY    40  35  83 CALM      29.97S
HURON          PTCLDY    36  30  79 NW9       29.99R
SISSETON         N/A     38  38 100 S6        29.98S
ABERDEEN       CLEAR     35  32  88 SW6       30.00R
MITCHELL       CLEAR     41  33  73 W9        30.00R
PIERRE         CLEAR     46  38  73 NW20      30.05R
MOBRIDGE       CLEAR     42  37  82 NW14      30.04R
RAPID CITY     CLEAR     40  30  67 N10       30.16R
$$

  *****  SOME WEATHER IN NEARBY STATES *****

CITY           SKY/WX    TMP DP  RH WIND       PRES   REMARKS
GLASGOW MT     CLOUDY    31  29  92 N6        30.23R
GREAT FALLS MT CLEAR     35  31  85 SW10      30.23R
CHEYENNE WY    PTCLDY    43  23  45 N9        30.30R
SCOTTSBLUFF NE CLEAR     35  28  75 NW6       30.26R
OMAHA NE       PTCLDY    45  33  63 S6        29.99F
DES MOINES IA  CLOUDY    44  34  67 E6        30.04F
DAVENPORT IA   MOCLDY    33  29  85 CALM      30.12S
CHICAGO IL     PTCLDY    35  30  82 CALM      30.13S
EAU CLAIRE WI  CLOUDY    35  32  88 CALM      30.06S
LA CROSSE WI   MOCLDY    37  34  89 SE6       30.08S
$$

  *****  SOME NATIONAL WEATHER *****

CITY           SKY/WX    TMP DP  RH WIND       PRES   REMARKS
LA GUARDIA NY  PTCLDY    51  45  79 W3        29.95R
RALEIGH NC     PTCLDY    50  45  83 NE3       30.02R
ATLANTA GA     CLEAR     46  43  89 NW7       30.05R
NEW ORLEANS LA PTCLDY    65  47  52 NE13      30.06S
OKLAHOMA CITY  PTCLDY    48  38  68 S6        30.09F
ALBUQUERQUE NM CLEAR     51  14  22 N10       30.28R
SALT LAKE CITY CLEAR     41  30  65 S3        30.26S
LOS ANGELES CA MOCLDY    65  62  92 CALM      29.99S
BOISE ID       PTCLDY    52  40  63 S7        30.18R
SEATTLE WA     CLOUDY    52  49  89 W3        29.98F
$$

*** WEATHER ACROSS MANITOBA...SASKATCHEWAN AND ONTARIO ***
                ***ONTARIO***

CITY           SKY/WX    TMP DP  RH WIND       PRES   REMARKS
GERALDTON      CLOUDY    27  27 100 SW3       30.02R
THUNDER BAY    LGT RAIN  37  36  93 N2        30.03S
SIOUX LOOKOUT  CLOUDY    32  32 100 NW2       30.02R
TORONTO        MOCLDY    37  34  87 W8        30.04R
BIG TROUT LK   FLURRIES  25  23  93 N6        30.00R WCI  18
PICKLE LAKE    NOT AVBL
DRYDEN         CLOUDY    34  34 100 NW5       30.02S FOG
KENORA         CLOUDY    34  32  93 N6        30.06R
$$
                *** MANITOBA***

CITY           SKY/WX    TMP DP  RH WIND       PRES   REMARKS
BRANDON        CLOUDY    32  27  80 N13       30.20R WCI  22
DAUPHIN        CLOUDY    30  27  86 N10       30.26R WCI  21
ISLAND LAKE    FLURRIES  25  21  86 NW14      30.11R WCI  13
PILOT MOUND      N/A     30  28  93 N12         N/A  WCI  21
THE PAS        CLOUDY    34  21  60 NW16G23   30.29R WCI  23
THOMPSON       FLURRIES  21  16  79 NW14G20   30.23  WCI   8
WINNIPEG       CLOUDY    36  32  87 N9        30.14R
LYNN LAKE      CLOUDY    19  16  86 N9G20     30.32R WCI   9
CHURCHILL      FLURRIES  23  23 100 NW16G25   30.20R WCI  10
GILLAM         LGT SNOW  25  21  86 N16       30.14R VSB 1   WCI  12
$$
                ***SASKATCHEWAN***

CITY           SKY/WX    TMP DP  RH WIND       PRES   REMARKS
ESTEVAN        CLOUDY    36  32  87 N10       30.21R
KINDERSLEY     CLOUDY    30  28  93 E6        30.28R WCI  24
LLOYDMINSTER   CLOUDY    32  30  93 E8        30.28S WCI  25
PRINCE ALBERT  CLOUDY    28  21  74 NE9       30.36R WCI  20
REGINA         CLOUDY    34  30  86 N8        30.26R
YORKTON        CLOUDY    28  27  93 N14       30.28R WCI  17
N. BATTLEFORD  CLOUDY    32  30  93 E13       30.34R WCI  22
LA RONGE       CLOUDY    27  21  80 N6        30.40R WCI  20
SASKATOON      CLOUDY    30  27  86 E12       30.33R WCI  21
SWIFT CURRENT  CLOUDY    32  30  93 E7        30.25R
$$
NOTE: THESE ARE AUTOMATED STATIONS WITH LIMITED QUALITY CONTROL
      "FAIR" INDICATES FEW OR NO CLOUDS BELOW 12,000 FEET WITH NO
      SIGNIFICANT WEATHER AND/OR OBSTRUCTIONS TO VISIBILITY.
      SKY/WX - SKY CONDITION AND SIGNIFICANT WEATHER.
      TMP - AIR TEMPERATURE.    DP   - DEWPOINT TEMPERATURE.
      RH  - RELATIVE HUMIDITY.  PRES - PRESSURE.
      HX  - HEAT INDEX.         WCI  - WIND CHILL INDEX.
$



USA.gov is the U.S. government's official web portal to all federal, state and local government web resources and services.